GW2341 Weather Reports


time (UTC)temp
C
wind
direction
speed
KPH
gust
KPH
rain 1hr
cm
rain 24hr
cm
rain mn
cm
humidity
%
barometer
mb
20260509000555 17 169 0.0 0.0 0.00 0.00 0.00 73 1014.7
20260509000050 17 169 0.0 0.0 0.00 0.00 0.00 70 1014.6
20260508235548 17 166 0.0 0.0 0.00 0.00 0.00 68 1014.7
20260508235044 18 165 0.0 0.0 0.00 0.00 0.00 67 1014.7
20260508234542 18 165 0.0 0.0 0.00 0.00 0.00 67 1014.8
20260508234039 18 165 0.0 0.0 0.00 0.00 0.00 65 1014.4
20260508233538 18 165 0.0 0.0 0.00 0.00 0.00 66 1014.8
20260508233035 18 164 0.0 0.0 0.00 0.00 0.00 66 1014.8
20260508232532 18 164 0.0 0.0 0.00 0.00 0.00 64 1014.8
20260508232029 18 181 0.0 0.0 0.00 0.00 0.00 65 1014.6
20260508231526 18 181 0.0 1.6 0.00 0.00 0.00 63 1014.5
20260508231023 18 171 0.0 0.0 0.00 0.00 0.00 63 1014.8
20260508230520 18 170 0.0 0.0 0.00 0.00 0.00 62 1014.9
20260508230017 18 180 0.0 1.6 0.00 0.00 0.00 61 1014.7
20260508225514 19 166 0.0 1.6 0.00 0.00 0.00 62 1014.6
20260508225010 19 173 0.0 0.0 0.00 0.00 0.00 61 1014.7
20260508224509 19 161 0.0 1.6 0.00 0.00 0.00 60 1014.7
20260508224005 19 183 3.2 3.2 0.00 0.00 0.00 62 1014.7
20260508223504 19 177 0.0 0.0 0.00 0.00 0.00 61 1014.8
20260508223001 19 164 0.0 4.8 0.00 0.00 0.00 60 1014.8
20260508222458 20 154 1.6 3.2 0.00 0.00 0.00 62 1014.6
20260508221954 20 148 0.0 1.6 0.00 0.00 0.00 60 1014.6
20260508221450 20 174 3.2 4.8 0.00 0.00 0.00 59 1014.9
20260508220946 20 166 0.0 3.2 0.00 0.00 0.00 59 1014.6
20260508220443 20 174 1.6 3.2 0.00 0.00 0.00 59 1014.5
20260508215939 20 178 3.2 8.0 0.00 0.00 0.00 61 1014.6
20260508215436 20 179 3.2 3.2 0.00 0.00 0.00 60 1014.8
20260508214933 20 249 4.8 4.8 0.00 0.00 0.00 58 1014.8
20260508214431 20 178 0.0 3.2 0.00 0.00 0.00 59 1014.7
20260508213926 20 179 0.0 0.0 0.00 0.00 0.00 57 1014.5
20260508213424 20 189 3.2 3.2 0.00 0.00 0.00 55 1014.3
20260508212919 20 170 0.0 3.2 0.00 0.00 0.00 57 1014.6
20260508212417 20 173 0.0 0.0 0.00 0.00 0.00 57 1014.6
20260508211912 20 185 0.0 3.2 0.00 0.00 0.00 58 1014.8
20260508211408 20 183 1.6 3.2 0.00 0.00 0.00 57 1014.7
20260508210906 20 181 0.0 4.8 0.00 0.00 0.00 58 1014.9
20260508210402 20 225 3.2 4.8 0.00 0.00 0.00 56 1014.9
20260508205858 20 221 4.8 4.8 0.00 0.00 0.00 54 1014.6
20260508205355 20 233 6.4 8.0 0.00 0.00 0.00 54 1014.6
20260508204851 20 230 3.2 8.0 0.00 0.00 0.00 55 1014.8
20260508204349 21 187 1.6 3.2 0.00 0.00 0.00 55 1014.8
20260508203844 21 173 1.6 1.6 0.00 0.00 0.00 56 1014.8
20260508203341 21 176 1.6 1.6 0.00 0.00 0.00 51 1014.8
20260508202836 21 201 1.6 3.2 0.00 0.00 0.00 54 1014.7
20260508202334 21 191 1.6 8.0 0.00 0.00 0.00 55 1014.9
20260508201831 21 206 3.2 4.8 0.00 0.00 0.00 51 1015.1
20260508201328 21 200 0.0 1.6 0.00 0.00 0.00 54 1015.0
20260508200824 21 187 1.6 3.2 0.00 0.00 0.00 53 1015.0
20260508200321 21 181 0.0 8.0 0.00 0.00 0.00 53 1014.9
20260508195811 21 170 0.0 4.8 0.00 0.00 0.00 51 1015.2
20260508195308 21 229 3.2 4.8 0.00 0.00 0.00 53 1015.4
20260508194804 21 225 4.8 4.8 0.00 0.00 0.00 52 1015.5
20260508194302 21 253 6.4 8.0 0.00 0.00 0.00 51 1015.3
20260508193759 21 150 0.0 3.2 0.00 0.00 0.00 52 1015.5
20260508193255 21 177 1.6 8.0 0.00 0.00 0.00 54 1016.0
20260508192751 21 251 4.8 8.0 0.00 0.00 0.00 52 1015.5
20260508192249 21 260 4.8 11.3 0.00 0.00 0.00 52 1015.6
20260508191746 21 165 0.0 3.2 0.00 0.00 0.00 53 1015.6
20260508191243 21 172 0.0 4.8 0.00 0.00 0.00 53 1015.8
20260508190740 22 185 0.0 11.3 0.00 0.00 0.00 53 1015.8
20260508190236 21 192 3.2 4.8 0.00 0.00 0.00 51 1015.8
20260508185733 21 200 3.2 9.7 0.00 0.00 0.00 54 1016.1
20260508185230 21 192 1.6 8.0 0.00 0.00 0.00 52 1015.8
20260508184727 21 139 3.2 4.8 0.00 0.00 0.00 50 1015.8
20260508184224 21 296 4.8 8.0 0.00 0.00 0.00 53 1016.2
20260508183721 22 270 3.2 8.0 0.00 0.00 0.00 50 1016.3
20260508183217 22 108 1.6 8.0 0.00 0.00 0.00 52 1016.6
20260508182713 21 126 3.2 4.8 0.00 0.00 0.00 52 1016.5
20260508182210 20 168 0.0 1.6 0.00 0.00 0.00 53 1016.7
20260508181706 20 184 4.8 4.8 0.00 0.00 0.00 56 1016.4
20260508181203 20 173 1.6 3.2 0.00 0.00 0.00 57 1016.6
20260508180700 20 276 1.6 9.7 0.00 0.00 0.00 54 1016.7
20260508180157 20 151 1.6 4.8 0.00 0.00 0.00 59 1016.5
20260508175653 20 279 4.8 11.3 0.00 0.00 0.00 55 1016.8
20260508175150 21 178 1.6 8.0 0.00 0.00 0.00 55 1016.6
20260508174648 20 263 4.8 4.8 0.00 0.00 0.00 54 1016.9
20260508174144 21 94 9.7 12.9 0.00 0.00 0.00 55 1016.9
20260508173641 20 169 0.0 4.8 0.00 0.00 0.00 58 1017.1
20260508173137 21 140 1.6 1.6 0.00 0.00 0.00 54 1017.3
20260508172635 20 144 3.2 3.2 0.00 0.00 0.00 59 1017.1
20260508172131 20 128 1.6 4.8 0.00 0.00 0.00 58 1017.3
20260508171628 20 168 0.0 0.0 0.00 0.00 0.00 59 1017.1
20260508171124 20 111 3.2 8.0 0.00 0.00 0.00 56 1017.5
20260508170621 20 210 4.8 8.0 0.00 0.00 0.00 55 1017.4
20260508170119 21 177 1.6 8.0 0.00 0.00 0.00 54 1017.4
20260508165616 20 164 0.0 3.2 0.00 0.00 0.00 57 1017.5
20260508165113 20 117 4.8 8.0 0.00 0.00 0.00 60 1017.7
20260508164609 20 187 4.8 4.8 0.00 0.00 0.00 57 1017.7
20260508164106 20 103 1.6 11.3 0.00 0.00 0.00 58 1017.7
20260508163603 19 144 1.6 8.0 0.00 0.00 0.00 58 1017.7
20260508163100 18 150 0.0 1.6 0.00 0.00 0.00 62 1017.9
20260508162557 18 151 4.8 9.7 0.00 0.00 0.00 60 1018.0
20260508162054 18 168 0.0 0.0 0.00 0.00 0.00 58 1018.1
20260508161551 19 162 1.6 4.8 0.00 0.00 0.00 59 1018.2
20260508161048 20 146 4.8 4.8 0.00 0.00 0.00 56 1018.1
20260508160546 19 161 3.2 8.0 0.00 0.00 0.00 59 1018.0
20260508160043 20 69 4.8 9.7 0.00 0.00 0.00 55 1018.2
20260508155540 20 149 1.6 8.0 0.00 0.00 0.00 58 1018.1
20260508155037 20 124 0.0 8.0 0.00 0.00 0.00 57 1018.3
20260508154534 18 203 3.2 4.8 0.00 0.00 0.00 64 1018.4
20260508154031 19 153 0.0 8.0 0.00 0.00 0.00 61 1018.4
20260508153528 19 151 1.6 3.2 0.00 0.00 0.00 58 1018.4
20260508153024 18 124 0.0 8.0 0.00 0.00 0.00 59 1018.6
20260508152521 18 168 4.8 9.7 0.00 0.00 0.00 64 1018.5
20260508152017 18 169 1.6 9.7 0.00 0.00 0.00 61 1018.5
20260508151514 19 115 3.2 14.5 0.00 0.00 0.00 60 1018.7
20260508151010 20 171 3.2 4.8 0.00 0.00 0.00 59 1018.3
20260508150508 18 197 0.0 3.2 0.00 0.00 0.00 62 1018.6
20260508150004 19 140 4.8 8.0 0.00 0.00 0.00 58 1018.5
20260508145500 18 205 3.2 9.7 0.00 0.00 0.00 60 1018.3
20260508144956 17 192 4.8 11.3 0.00 0.00 0.00 61 1018.4
20260508144454 18 119 6.4 8.0 0.00 0.00 0.00 60 1018.4
20260508143951 18 97 3.2 12.9 0.00 0.00 0.00 62 1018.2
20260508143449 18 180 3.2 8.0 0.00 0.00 0.00 64 1018.3
20260508142945 18 125 1.6 8.0 0.00 0.00 0.00 63 1018.3
20260508142442 18 104 4.8 9.7 0.00 0.00 0.00 64 1018.3
20260508141938 18 148 3.2 4.8 0.00 0.00 0.00 61 1018.3
20260508141435 18 109 0.0 4.8 0.00 0.00 0.00 65 1018.3
20260508140933 18 147 0.0 4.8 0.00 0.00 0.00 67 1018.6
20260508140430 17 144 1.6 1.6 0.00 0.00 0.00 67 1018.6
20260508135925 17 101 3.2 4.8 0.00 0.00 0.00 67 1018.6
20260508135422 17 133 0.0 0.0 0.00 0.00 0.00 69 1018.8
20260508134919 16 157 1.6 4.8 0.00 0.00 0.00 70 1018.7
20260508134415 16 150 0.0 8.0 0.00 0.00 0.00 69 1018.6
20260508133912 16 152 0.0 8.0 0.00 0.00 0.00 71 1018.7
20260508133410 16 129 1.6 4.8 0.00 0.00 0.00 71 1018.7
20260508132907 16 132 1.6 3.2 0.00 0.00 0.00 72 1018.7
20260508132405 15 156 0.0 1.6 0.00 0.00 0.00 76 1018.6
20260508131901 16 56 6.4 8.0 0.00 0.00 0.00 74 1018.8
20260508131356 15 171 0.0 0.0 0.00 0.00 0.00 78 1018.7
20260508130854 15 156 0.0 4.8 0.00 0.00 0.00 77 1018.6
20260508130350 15 146 0.0 3.2 0.00 0.00 0.00 78 1018.5
20260508125846 15 157 0.0 3.2 0.00 0.00 0.00 78 1018.5
20260508125342 15 141 0.0 1.6 0.00 0.00 0.00 78 1018.4
20260508124840 15 165 0.0 1.6 0.00 0.00 0.00 81 1018.3
20260508124338 14 146 0.0 0.0 0.00 0.00 0.00 82 1018.0
20260508123836 14 154 0.0 0.0 0.00 0.00 0.00 81 1018.3
20260508123334 13 148 0.0 0.0 0.00 0.00 0.00 82 1018.0
20260508122830 14 160 0.0 0.0 0.00 0.00 0.00 81 1018.0
20260508122327 14 144 0.0 1.6 0.00 0.00 0.00 81 1017.8
20260508121824 13 22 0.0 3.2 0.00 0.00 0.00 82 1017.7
20260508121323 13 138 0.0 0.0 0.00 0.00 0.00 84 1017.9
20260508120820 12 139 0.0 0.0 0.00 0.00 0.00 87 1017.8
20260508120318 12 151 0.0 1.6 0.00 0.00 0.00 90 1017.7
20260508115815 11 147 0.0 0.0 0.00 0.00 0.00 91 1017.7
20260508115312 11 151 0.0 0.0 0.00 0.00 0.00 93 1017.7
20260508114809 11 155 0.0 0.0 0.00 0.00 0.00 95 1017.6
20260508114306 11 168 0.0 0.0 0.00 0.00 0.00 96 1017.4
20260508113802 10 168 0.0 0.0 0.00 0.00 0.00 96 1017.4
20260508113301 10 164 0.0 0.0 0.00 0.00 0.00 97 1017.3
20260508112756 10 160 0.0 0.0 0.00 0.00 0.00 97 1017.3
20260508112254 10 162 0.0 0.0 0.00 0.00 0.00 98 1017.1
20260508111749 10 160 0.0 0.0 0.00 0.00 0.00 98 1017.0
20260508111247 10 151 0.0 0.0 0.00 0.00 0.00 99 1016.7
20260508110744 10 152 0.0 0.0 0.00 0.00 0.00 99 1016.7
20260508110241 10 148 0.0 1.6 0.00 0.00 0.00 99 1016.6
20260508105736 10 164 0.0 0.0 0.00 0.00 0.00 99 1016.4
20260508105233 10 164 0.0 0.0 0.00 0.00 0.00 99 1016.4
20260508104730 10 163 0.0 0.0 0.00 0.00 0.00 99 1016.3
20260508104227 10 149 0.0 0.0 0.00 0.00 0.00 99 1016.3
20260508103724 10 157 0.0 1.6 0.00 0.00 0.00 99 1016.1
20260508103221 10 161 0.0 0.0 0.00 0.00 0.00 99 1016.0
20260508102718 10 155 0.0 0.0 0.00 0.00 0.00 99 1015.8
20260508102216 10 155 0.0 0.0 0.00 0.00 0.00 99 1015.8
20260508101713 10 152 0.0 0.0 0.00 0.00 0.00 99 1015.8
20260508101211 10 153 0.0 0.0 0.00 0.00 0.00 99 1016.0
20260508100708 10 153 0.0 0.0 0.00 0.00 0.00 99 1015.7
20260508100206 10 152 0.0 0.0 0.00 0.00 0.00 99 1015.8
20260508095702 10 152 0.0 0.0 0.00 0.00 0.00 99 1015.5
20260508095200 10 152 0.0 0.0 0.00 0.00 0.00 99 1015.4
20260508094656 10 152 0.0 0.0 0.00 0.00 0.00 99 1015.5
20260508094153 10 153 0.0 0.0 0.00 0.00 0.00 99 1015.4
20260508093650 10 152 0.0 0.0 0.00 0.00 0.00 99 1015.3
20260508093148 10 152 0.0 0.0 0.00 0.00 0.00 99 1015.3
20260508092645 10 164 0.0 0.0 0.00 0.00 0.00 99 1015.6
20260508092143 10 164 0.0 0.0 0.00 0.00 0.00 99 1015.4
20260508091640 10 180 0.0 0.0 0.00 0.00 0.00 99 1015.1
20260508091137 10 180 0.0 0.0 0.00 0.00 0.00 99 1015.2
20260508090635 10 180 0.0 0.0 0.00 0.00 0.00 99 1015.1
20260508090132 10 180 0.0 0.0 0.00 0.00 0.00 99 1015.0
20260508085628 10 180 0.0 0.0 0.00 0.00 0.00 99 1015.1
20260508085126 10 180 0.0 0.0 0.00 0.00 0.00 99 1014.9
20260508084622 10 180 0.0 0.0 0.00 0.00 0.00 99 1014.8
20260508084119 10 180 0.0 0.0 0.00 0.00 0.00 99 1015.0
20260508083616 10 180 0.0 0.0 0.00 0.00 0.00 99 1014.9
20260508083114 10 180 0.0 0.0 0.00 0.00 0.00 99 1014.8
20260508082609 10 180 0.0 0.0 0.00 0.00 0.00 99 1014.8
20260508082107 10 180 0.0 0.0 0.00 0.00 0.00 99 1015.1
20260508081604 10 180 0.0 0.0 0.00 0.00 0.00 99 1015.0
20260508081100 10 180 0.0 0.0 0.00 0.00 0.00 99 1014.7
20260508080558 10 180 0.0 0.0 0.00 0.00 0.00 99 1014.8
20260508080055 10 180 0.0 0.0 0.00 0.00 0.00 99 1014.8
20260508075551 10 180 0.0 0.0 0.00 0.00 0.00 99 1014.9
20260508075049 10 180 0.0 0.0 0.00 0.00 0.00 99 1014.9
20260508074547 10 180 0.0 0.0 0.00 0.00 0.00 99 1015.0
20260508074043 10 180 0.0 0.0 0.00 0.00 0.00 99 1015.1
20260508073540 10 180 0.0 0.0 0.00 0.00 0.00 99 1015.0
20260508073038 10 180 0.0 0.0 0.00 0.00 0.00 99 1015.0
20260508072533 10 180 0.0 0.0 0.00 0.00 0.00 98 1015.1
20260508072031 10 180 0.0 0.0 0.00 0.00 0.00 98 1015.2
20260508071529 10 180 0.0 0.0 0.00 0.00 0.00 98 1014.9
20260508071026 10 180 0.0 0.0 0.00 0.00 0.00 98 1014.9
20260508070524 10 180 0.0 0.0 0.00 0.00 0.00 98 1014.9
20260508070022 10 180 0.0 0.0 0.00 0.00 0.00 98 1014.8
20260508065519 10 180 0.0 0.0 0.00 0.00 0.00 98 1014.6
20260508065018 10 180 0.0 0.0 0.00 0.00 0.00 98 1014.6
20260508064515 10 180 0.0 0.0 0.00 0.00 0.00 98 1014.6
20260508064013 11 180 0.0 0.0 0.00 0.00 0.00 98 1014.7
20260508063510 11 180 0.0 0.0 0.00 0.00 0.00 98 1014.7
20260508063007 11 180 0.0 0.0 0.00 0.00 0.00 98 1014.5
20260508062505 11 180 0.0 0.0 0.00 0.00 0.00 98 1014.6
20260508062001 11 180 0.0 0.0 0.00 0.00 0.00 97 1014.5
20260508061500 11 180 0.0 0.0 0.00 0.00 0.00 97 1014.6
20260508060955 11 180 0.0 0.0 0.00 0.00 0.00 97 1014.6
20260508060453 11 180 0.0 0.0 0.00 0.00 0.00 97 1014.6
20260508055949 11 180 0.0 0.0 0.00 0.00 0.00 97 1014.7
20260508055446 11 180 0.0 0.0 0.00 0.00 0.00 97 1014.5
20260508054942 11 180 0.0 0.0 0.00 0.00 0.00 97 1014.6
20260508054439 11 180 0.0 0.0 0.00 0.00 0.00 97 1014.9
20260508053936 11 180 0.0 0.0 0.00 0.00 0.00 97 1014.9
20260508053433 11 180 0.0 0.0 0.00 0.00 0.00 96 1014.8
20260508052931 11 180 0.0 0.0 0.00 0.00 0.00 96 1014.8
20260508052428 12 180 0.0 0.0 0.00 0.00 0.00 96 1014.7
20260508051924 12 180 0.0 0.0 0.00 0.00 0.00 96 1014.7
20260508051420 12 180 0.0 0.0 0.00 0.00 0.00 95 1014.8
20260508050916 12 180 0.0 0.0 0.00 0.00 0.00 95 1015.0
20260508050413 12 180 0.0 0.0 0.00 0.00 0.00 94 1014.7
20260508045909 12 180 0.0 0.0 0.00 0.00 0.00 94 1014.6
20260508045407 12 180 0.0 0.0 0.00 0.00 0.00 94 1014.7
20260508044905 12 180 0.0 0.0 0.00 0.00 0.00 93 1014.6
20260508044401 12 180 0.0 0.0 0.00 0.00 0.00 93 1014.7
20260508043857 12 180 0.0 0.0 0.00 0.00 0.00 93 1014.5
20260508043354 12 180 0.0 0.0 0.00 0.00 0.00 93 1014.3
20260508042850 12 180 0.0 0.0 0.00 0.00 0.00 92 1014.4
20260508042348 12 180 0.0 0.0 0.00 0.00 0.00 92 1014.2
20260508041845 12 180 0.0 0.0 0.00 0.00 0.00 92 1014.3
20260508041341 12 180 0.0 0.0 0.00 0.00 0.00 91 1014.4
20260508040838 13 180 0.0 0.0 0.00 0.00 0.00 91 1014.3
20260508040335 13 181 0.0 0.0 0.00 0.00 0.00 92 1014.4
20260508035832 13 180 0.0 0.0 0.00 5.66 5.66 92 1014.0
20260508035324 13 180 0.0 0.0 0.00 5.66 5.66 91 1014.1
20260508034821 13 180 0.0 0.0 0.00 5.66 5.66 90 1014.4
20260508034318 13 180 0.0 0.0 0.00 5.66 5.66 90 1014.1
20260508033815 13 180 0.0 0.0 0.00 5.66 5.66 90 1014.1
20260508033313 13 180 0.0 0.0 0.00 5.66 5.66 89 1014.3
20260508032810 13 180 0.0 0.0 0.00 5.66 5.66 88 1014.3
20260508032308 13 181 0.0 0.0 0.00 5.66 5.66 88 1014.2
20260508031804 14 181 0.0 0.0 0.00 5.66 5.66 86 1014.3
20260508031301 14 181 0.0 0.0 0.00 5.66 5.66 85 1014.3
20260508030757 15 181 0.0 0.0 0.00 5.66 5.66 84 1014.2
20260508030255 15 181 0.0 0.0 0.00 5.66 5.66 82 1013.8
20260508025751 15 181 0.0 0.0 0.00 5.66 5.66 81 1014.0
20260508025248 15 181 0.0 0.0 0.00 5.66 5.66 79 1013.6
20260508024744 15 181 0.0 1.6 0.00 5.66 5.66 78 1014.0
20260508024241 15 153 0.0 0.0 0.00 5.66 5.66 79 1014.1
20260508023738 16 152 0.0 0.0 0.00 5.66 5.66 77 1013.8
20260508023236 16 151 0.0 1.6 0.00 5.66 5.66 76 1013.6
20260508022731 16 192 0.0 4.8 0.00 5.66 5.66 74 1013.4
20260508022228 16 175 0.0 4.8 0.00 5.66 5.66 75 1013.5
20260508021725 16 192 1.6 4.8 0.00 5.66 5.66 74 1013.3
20260508021220 16 213 3.2 8.0 0.00 5.66 5.66 73 1013.2
20260508020718 17 202 4.8 4.8 0.00 5.66 5.66 73 1013.3
20260508020215 17 189 3.2 3.2 0.00 5.66 5.66 72 1013.2
20260508015712 17 185 1.6 3.2 0.00 5.66 5.66 72 1013.2
20260508015209 17 238 4.8 9.7 0.00 5.66 5.66 71 1013.2
20260508014706 17 313 8.0 12.9 0.00 5.66 5.66 71 1013.1
20260508014202 17 259 8.0 9.7 0.00 5.66 5.66 71 1012.8
20260508013658 17 136 4.8 11.3 0.00 5.66 5.66 70 1012.5
20260508013155 17 327 4.8 12.9 0.00 5.66 5.66 70 1012.6
20260508012653 17 278 8.0 11.3 0.00 5.66 5.66 69 1012.5
20260508012149 17 268 3.2 8.0 0.00 5.66 5.66 70 1012.5
20260508011648 18 183 6.4 11.3 0.00 5.66 5.66 69 1012.4
20260508011145 18 166 1.6 9.7 0.00 5.66 5.66 69 1012.4
20260508010641 18 225 3.2 8.0 0.00 5.66 5.66 69 1012.3
20260508010139 18 219 8.0 9.7 0.00 5.66 5.66 68 1012.3
20260508005636 18 227 6.4 12.9 0.00 5.66 5.66 67 1012.3
20260508005133 18 198 4.8 12.9 0.00 5.66 5.66 67 1012.1
20260508004628 18 217 3.2 8.0 0.00 5.66 5.66 66 1012.1
20260508004125 19 222 4.8 9.7 0.00 5.66 5.66 65 1011.8
20260508003621 19 189 6.4 9.7 0.00 5.66 5.66 65 1011.7
20260508003119 19 224 3.2 8.0 0.00 5.66 5.66 65 1011.7
20260508002616 20 212 4.8 16.1 0.00 5.66 5.66 64 1011.5
20260508002114 20 250 12.9 16.1 0.00 5.66 5.66 64 1011.2
20260508001608 20 215 8.0 11.3 0.00 5.66 5.66 65 1011.2
20260508001105 20 195 4.8 11.3 0.00 5.66 5.66 66 1011.3